カタログに戻る

ATLAS 5 CENTAUR DEB

LostHEO
NORAD 57597·DEBRIS·🇺🇸 United States

打ち上げ Oct 17, 2018 から Cape Canaveral Space Force Station

Loading…

次のパス (今後24時間)

TLE

古いSource: Space-Track

元期: Jun 19, 2025, 23:30 UTC

1 57597U 18079HY  25170.97918977 -.00000098  00000-0  00000-0 0  9998
2 57597  12.2021  89.5909 4524887 205.0959 123.4511  1.72104092 14256

AllMySatでATLAS 5 CENTAUR DEBをリアルタイム追跡

Download on the App Store